Location: ??????
(41.3293°N, 20.6007°E)
Time: 14:19:30
(UTC+00:00)

Daily predictions for brighter satellites

Satellite Brightness Start Highest point End
(mag) Time Altitude Azimuth Time Altitude Azimuth Time Altitude Azimuth
Cosmos 614 Rocket 4.1 18:38:06 10° NNW 18:43:17 70° ENE 18:48:28 10° SSE
NOSS 3-2 (C) 4.3 18:41:48 10° SSE 18:45:57 22° ESE 18:50:27 10° ENE
Cosmos 1300 Rocket 3.7 18:42:08 10° N 18:46:23 55° E 18:50:36 10° SSE
NOSS 3-2 (A) 3.6 18:42:45 10° S 18:47:50 42° ESE 18:53:33 10° NE
Nadezhda 3 Rocket 4.1 18:52:09 10° S 18:58:18 83° W 19:04:29 10° N
Cosmos 332 Rocket 4.0 18:54:55 10° SSW 18:59:44 77° WNW 19:04:34 10° NNE
OBJECT-B 2.8 18:59:30 10° SSW 19:02:16 26° W 19:05:03 10° NW
SJ-6B 4.3 18:59:21 10° SSW 19:03:10 37° W 19:07:00 10° NNW
Okean 2 4.4 19:00:01 10° SSE 19:03:30 27° E 19:06:59 10° NNE
Cosmos 1842 3.6 19:02:58 10° SSE 19:06:43 46° E 19:10:30 10° NNE
Cosmos 1726 3.7 19:04:48 10° NNE 19:07:34 20° ENE 19:09:48 13° ESE
Resurs 1-3 4.0 19:03:45 10° S 19:08:06 65° WSW 19:12:28 10° NNW
Cosmos 1766 3.2 19:06:03 10° N 19:09:55 77° E 19:13:46 10° SSE
Cosmos 1315 Rocket 4.4 19:07:11 10° NNE 19:10:25 22° ENE 19:13:03 13° ESE
IGS 5A 3.4 19:09:25 10° SSE 19:13:33 75° ENE 19:17:42 10° N
Cosmos 2082 3.9 19:08:22 10° NNW 19:14:06 76° WSW 19:19:48 10° SSE
MetOp-B 4.3 19:11:06 11° SSE 19:16:10 59° ENE 19:21:26 10° N
SL-16 R/B 3.1 19:13:04 10° SSE 19:17:46 28° ESE 19:22:29 10° NE
Cosmos 1697 Rocket 4.1 19:12:53 10° SW 19:18:10 42° WNW 19:23:30 10° N
Okean 1 Rocket 3.8 19:16:25 10° N 19:20:26 35° ENE 19:23:24 16° SE
USA 238 DEB 3.6 19:14:24 10° SSW 19:20:44 58° ESE 19:27:23 10° NE
USA 238 3.7 19:14:32 10° SSW 19:20:51 58° ESE 19:27:29 10° NE
Aureole 2 Rocket 1.4 19:19:19 10° NNW 19:21:48 88° ENE 19:23:14 21° SSE
Cosmos 1470 3.6 19:18:24 10° N 19:22:05 35° ENE 19:24:35 17° SE
SPOT 5 4.3 19:18:49 13° ESE 19:22:30 27° ENE 19:26:43 10° N
Cosmos 2278 3.8 19:17:24 10° SSW 19:23:06 85° WNW 19:28:50 10° NNE
Cosmos 2322 Rocket 3.3 19:20:06 14° SSE 19:23:39 24° E 19:28:07 10° NE
USA 215 3.7 19:19:22 10° ENE 19:25:23 38° SE 19:31:23 10° SSW
Ariane Rocket 3.9 19:20:35 10° S 19:25:28 47° W 19:30:24 10° NNW
Cosmos 2360 Rocket 3.9 19:24:19 12° ESE 19:25:36 13° E 19:28:11 10° ENE
Cosmos 1339 Rocket 4.5 19:20:12 10° S 19:26:25 73° E 19:32:34 10° NNE
Meteor 1-22 Rocket 4.3 19:22:42 10° N 19:28:44 85° E 19:34:07 12° S
Cosmos 2221 Rocket 4.4 19:25:56 10° SSW 19:30:19 52° W 19:34:41 10° N
SWAS 4.4 19:27:01 10° SSW 19:31:19 84° ESE 19:35:38 10° NNE
Resurs 01 Rocket 2.1 19:30:10 10° S 19:34:30 60° W 19:38:53 10° NNW
Cosmos 1378 Rocket 3.4 19:31:46 10° S 19:36:05 82° E 19:40:26 10° N
CZ-2C R/B 3.8 19:31:58 10° NNE 19:36:45 83° ESE 19:41:32 10° SSW
Okean 2 Rocket 3.9 19:34:06 10° NNW 19:38:27 50° W 19:42:47 10° SSW
Cosmos 1624 Rocket 4.1 19:33:09 10° SSW 19:38:28 87° WNW 19:43:49 10° NNE
Lacrosse 5 3.3 19:35:03 10° NNW 19:39:32 30° NNE 19:44:00 10° E
Genesis I 3.8 19:42:08 20° SSE 19:44:07 34° ESE 19:47:40 10° NE
Cosmos 1980 Rocket 3.2 19:39:06 10° SW 19:44:34 49° WNW 19:50:01 10° NNE
Cosmos 2151 Rocket 4.3 19:42:46 10° NNW 19:47:03 52° W 19:51:04 11° SSW
CENTAUR R/B 2.4 19:41:25 10° SSW 19:47:06 81° ESE 19:53:57 10° NE
Cosmos 1626 4.3 19:49:52 12° E 19:49:52 12° E 19:51:26 10° ENE
SPOT 1/Viking Rocket 3.6 19:48:44 17° S 19:52:43 79° WSW 19:57:53 10° NNW
Cosmos 1140 Rocket 3.9 19:48:08 10° NNW 19:53:19 61° WSW 19:57:12 18° S
Terra 2.8 19:52:06 21° ESE 19:54:28 34° ENE 19:58:46 10° N
Cosmos 1953 3.7 19:54:23 10° NNE 19:57:46 25° ENE 19:58:56 22° E
Cosmos 292 Rocket 3.8 19:54:25 16° S 19:58:10 61° ESE 20:02:56 10° NNE
USA 245 3.8 19:57:42 22° S 20:00:19 72° W 20:05:23 10° NNW
Cosmos 220 Rocket 4.1 19:57:25 10° SSW 20:01:46 79° WNW 20:06:04 10° NNE
Cosmos 1452 Rocket 3.7 19:58:56 21° S 20:02:10 50° ESE 20:07:16 10° NNE
Cosmos 1674 3.4 20:02:47 31° ESE 20:03:25 33° E 20:06:48 10° NNE
H-2A R/B 4.2 20:01:36 10° NNE 20:05:17 32° E 20:06:00 30° ESE
CARTOSAT-1 3.5 20:04:34 28° S 20:06:51 87° W 20:11:11 10° NNW
Cosmos 2056 Rocket 4.4 20:02:07 10° SW 20:07:07 49° WNW 20:12:13 10° N
Cosmos 1844 Rocket 4.2 20:05:28 10° N 20:10:06 25° NE 20:13:22 16° E
Cosmos 1908 4.3 20:09:03 10° NNE 20:12:32 30° ENE 20:13:16 28° E
ARIANE 5 R/B 2.7 20:11:07 28° S 20:13:22 77° WSW 20:17:51 10° NNW
Cosmos 1975 Rocket 3.1 20:11:56 34° SSE 20:13:34 57° E 20:17:51 10° NNE
Cosmos 1707 3.2 20:12:50 20° SSW 20:15:22 60° W 20:19:15 10° N
Cosmos 2333 Rocket 3.8 20:18:02 17° E 20:18:07 17° E 20:21:43 10° ENE
Cosmos 1025 Rocket 3.8 20:18:50 32° ESE 20:19:36 34° E 20:23:35 10° NNE
Cosmos 2263 Rocket 2.5 20:15:54 10° NNW 20:21:31 62° WSW 20:24:35 27° S
BREEZE-M DEB (TANK) 1.7 20:23:13 53° E 20:23:13 53° E 20:26:46 10° ENE
Spot 2 Rocket 4.1 20:27:03 23° SSW 20:29:59 49° W 20:34:54 10° NNW
Cosmos 2173 Rocket 4.1 20:26:21 10° N 20:32:43 69° E 20:35:42 33° SSE
NOSS 8 (A) 4.1 20:33:06 73° S 20:33:21 82° ESE 20:36:21 10° NE
Cosmos 1727 Rocket 4.3 20:28:06 15° SSW 20:33:27 66° W 20:39:45 10° N
Cosmos 2016 Rocket 4.4 20:28:34 10° N 20:34:25 46° ENE 20:36:45 32° SE
CZ-4B DEB 4.1 20:35:15 76° ENE 20:35:15 76° ENE 20:38:25 10° N
Cosmos 1340 4.1 20:35:45 25° ENE 20:35:45 25° ENE 20:38:24 10° NE
In-Cosmos 22 4.3 20:32:23 20° SSW 20:36:04 67° W 20:41:20 10° N
NOSS 3-2 (C) 4.0 20:30:42 10° SW 20:36:09 57° NW 20:42:27 10° NNE
Cosmos 1331 Rocket 4.3 20:36:04 39° SE 20:37:13 45° ESE 20:42:13 10° NNE
Cosmos 1726 4.1 20:39:47 10° NW 20:42:38 22° W 20:44:15 16° SW
Cosmos 1725 Rocket 4.5 20:36:49 10° N 20:42:44 46° ENE 20:44:59 33° SE
Cosmos 1741 Rocket 4.0 20:40:28 10° NNW 20:45:44 71° ENE 20:47:24 43° SE
ERS-1 Rocket 3.5 20:45:11 30° SSW 20:47:24 50° W 20:52:19 10° NNW
Centaur D AC-29 3.5 20:18:35 10° W 20:47:37 34° SSW 20:50:17 29° S
Cosmos 1802 Rocket 4.0 20:41:32 10° N 20:47:46 71° E 20:50:18 38° SSE
Cosmos 2219 Rocket 3.3 20:49:52 27° ESE 20:49:58 27° ESE 20:54:39 10° NE
ATLAS 3B R/B 3.1 20:52:20 35° SE 20:53:13 36° ESE 20:59:12 10° NE
GEOS 3 Rocket 3.8 20:52:41 38° ESE 20:54:46 70° NE 21:00:06 10° NNW
Cosmos 1544 Rocket 3.5 20:55:37 10° N 21:00:07 83° E 21:00:47 63° SSE
SPOT 5 4.0 20:58:02 26° SSW 21:00:21 39° W 21:05:09 10° NNW
SL-16 R/B 3.3 20:56:16 10° SW 21:01:37 42° WNW 21:07:01 10° NNE
Cosmos 1455 Rocket 3.7 21:01:20 10° NNW 21:05:39 50° W 21:06:41 41° SW
Meteor 2-5 Rocket 3.9 21:05:21 46° SE 21:06:27 53° E 21:11:51 10° NNE
Meteor 1-16 Rocket 4.5 21:01:27 10° NNW 21:06:53 59° W 21:08:45 38° SSW
Cosmos 2322 Rocket 3.0 21:01:49 10° SW 21:07:20 49° WNW 21:12:52 10° NNE
USA 215 3.7 21:02:08 10° NE 21:08:35 63° NW 21:15:01 10° WSW
Cosmos 2360 Rocket 2.2 21:06:00 31° SSW 21:08:48 81° WNW 21:14:29 10° NNE
COSMOS 2428 3.6 21:08:47 32° ESE 21:08:52 32° ESE 21:13:53 10° NE
Cosmos 1461 3.6 21:06:17 10° NNW 21:10:19 41° NE 21:10:52 39° ENE
Cosmos 2061 Rocket 4.0 21:08:08 10° N 21:14:37 89° E 21:16:50 45° S
Cosmos 2322 3.8 21:15:44 50° SE 21:16:31 54° ESE 21:22:00 10° NNE
Lacrosse 5 rocket 3.3 21:22:12 16° ENE 21:22:12 16° ENE 21:23:02 10° ENE
SL-24 R/B 4.5 21:16:45 10° N 21:21:39 69° W 21:22:45 50° SW
Lacrosse 5 1.9 21:17:48 10° NW 21:22:47 59° SW 21:23:12 57° SSW
Cosmos 1626 3.2 21:24:21 36° W 21:24:39 37° WNW 21:28:06 10° N
Cosmos 1110 Rocket 4.4 21:25:13 33° SW 21:27:22 57° WNW 21:32:30 10° NNE
Cosmos 1536 Rocket 3.5 21:27:57 69° SW 21:28:22 76° W 21:32:51 10° N
Cosmos 2278 Rocket 4.2 21:27:19 10° N 21:31:27 20° NE 21:34:45 13° E
Terra 3.4 21:30:59 22° WSW 21:32:14 25° W 21:36:09 10° NW
Meteor 2-10 Rocket 3.9 21:27:35 10° N 21:32:32 45° ENE 21:33:11 43° E
Cosmos 1953 4.1 21:30:47 10° NW 21:34:01 23° W 21:34:36 22° WSW
Cosmos 1455 4.3 21:33:01 10° NNE 21:35:25 18° ENE 21:35:25 18° ENE
ATLAS CENTAUR R/B 4.5 21:36:18 20° E 21:36:23 20° E 21:42:31 10° ENE
ATLAS CENTAUR R/B 2.9 21:34:07 10° NNW 21:38:03 32° NE 21:39:06 28° ENE
Cosmos 2123 Rocket 4.5 21:37:49 32° SW 21:40:33 55° W 21:46:45 10° N
USA 267 3.3 21:37:25 33° ESE 21:40:36 76° NE 21:47:08 10° NW
Cosmos 1300 3.1 21:36:52 10° NNW 21:40:09 59° NW 21:40:09 59° NW
Cosmos 405 4.1 21:42:06 10° NNW 21:44:35 39° NW 21:44:35 39° NW
Cosmos 968 Rocket 3.7 21:48:15 10° N 21:53:17 55° ENE 21:53:59 51° E
Cosmos 1844 Rocket 3.0 21:48:47 10° NNW 21:54:17 51° WSW 21:55:01 48° SW
Cosmos 1447 Rocket 4.4 21:55:31 54° SSW 21:57:05 86° W 22:03:20 10° N
Cosmos 2233 Rocket 4.0 21:53:10 10° NNW 21:59:16 70° W 22:00:40 52° SSW
Cosmos 2333 Rocket 2.4 22:00:00 44° SW 22:01:45 67° WNW 22:07:29 10° NNE
COBE Rocket 3.8 22:02:30 75° S 22:02:57 89° WSW 22:08:01 10° NNW
Spot 4 4.0 22:03:38 59° WSW 22:03:47 59° W 22:08:32 10° NNW
Cosmos 1980 4.4 22:07:31 37° ESE 22:07:31 37° ESE 22:12:38 10° NE
Cosmos 2058 Rocket 4.0 22:05:30 10° N 22:09:38 38° ENE 22:09:38 38° ENE
Meteor 1-24 Rocket 4.1 22:10:04 43° WSW 22:11:13 50° WNW 22:16:28 10° N
Cosmos 2228 3.2 22:07:56 10° NNW 22:12:02 69° WNW 22:12:02 69° WNW
Thor Agena Rocket 3.7 22:17:06 10° NNE 22:22:19 59° ESE 22:22:31 58° ESE
Meteor 1-21 Rocket 4.4 22:21:58 52° ESE 22:22:30 54° E 22:27:59 10° NNE
ALOS 2 2.9 22:25:47 57° WNW 22:25:47 57° WNW 22:29:44 10° NNW
Cosmos 1726 Rocket 3.7 22:26:17 10° NNW 22:30:23 69° NW 22:30:23 69° NW
Cosmos 2219 Rocket 3.1 22:31:32 31° WSW 22:33:39 44° WNW 22:39:05 10° NNE
SL-16 R/B 3.9 22:34:17 19° ESE 22:34:27 19° E 22:38:23 10° NE
PSLV R/B 4.3 22:30:50 10° NNE 22:34:23 44° ENE 22:34:23 44° ENE
Cosmos 1464 Rocket 3.9 22:30:46 10° N 22:37:09 85° E 22:38:30 59° SSE
Cosmos 1892 Rocket 3.9 22:40:25 59° WNW 22:40:25 59° WNW 22:44:32 10° N
Cosmos 2237 Rocket 2.1 22:41:47 65° SE 22:42:12 68° ESE 22:47:48 10° NNE
Cosmos 1606 Rocket 4.5 22:38:48 10° NNW 22:42:37 40° WNW 22:42:37 40° WNW
ATLAS 3B R/B 3.4 22:39:31 21° WSW 22:43:43 46° NW 22:50:12 10° NNE
Cosmos 389 Rocket 4.5 22:41:13 10° NNW 22:42:52 23° NW 22:42:52 23° NW
NOSS 0 Rocket 3.8 22:43:34 60° SSW 22:44:51 88° WNW 22:51:07 10° NNE
COSMOS 2428 3.8 22:50:46 28° WSW 22:53:01 38° WNW 22:58:23 10° N
EO 1 Del DPAF 4.4 22:50:01 10° NNE 22:52:38 38° NE 22:52:38 38° NE
SL-4 R/B 4.2 22:59:24 16° ENE 22:59:24 16° ENE 23:00:14 10° ENE
Cosmos 1816 Rocket 4.4 22:56:18 60° SSE 22:57:29 80° E 23:03:37 10° N
SJ 16-02 3.8 22:55:11 10° NNE 22:58:02 17° ENE 23:00:18 12° E
Lacrosse 5 rocket 3.2 22:57:45 19° WNW 22:58:48 22° NNW 23:01:39 10° NNE
SL-8 R/B 4.1 22:59:05 10° WNW 23:02:46 52° WNW 23:02:46 52° WNW
Cosmos 2034 Rocket 3.9 23:01:34 10° N 23:07:47 80° W 23:09:00 59° SSW
CZ-2D R/B 3.9 23:05:22 10° NE 23:08:59 19° E 23:10:10 18° ESE
SL-16 R/B 4.3 23:06:17 10° ESE 23:11:12 25° ENE 23:16:06 10° N
Cosmos 1455 4.0 23:08:01 10° NNW 23:10:18 24° WNW 23:10:18 24° WNW
Cosmos 1354 Rocket 3.9 23:07:41 10° NNW 23:13:02 78° WSW 23:13:27 72° SSW
Cosmos 1626 Rocket 3.6 23:14:26 77° NW 23:14:26 77° NW 23:18:44 10° N
Resurs 1-4 Rocket 3.7 23:10:18 10° NE 23:14:25 22° E 23:15:40 21° ESE
Cosmos 192 4.3 23:14:45 67° W 23:15:05 69° WNW 23:20:01 10° NNE
Meteor 2-1 Rocket 4.3 23:09:57 10° NNW 23:15:19 55° W 23:15:47 53° WSW
Cosmos 2278 Rocket 2.1 23:10:26 10° NNW 23:16:03 66° WSW 23:16:33 63° SW
ATLAS CENTAUR R/B 3.2 23:12:59 10° NW 23:15:12 23° WNW 23:15:12 23° WNW
Okean 1-7 Rocket 4.3 23:17:58 42° WNW 23:17:58 42° WNW 23:22:12 10° N
Cosmos 1602 Rocket 3.5 23:19:04 81° ENE 23:19:04 81° ENE 23:23:28 10° N
Cosmos 1607 4.0 23:14:58 10° NNW 23:21:25 78° ENE 23:24:03 38° SE
USA 267 4.2 23:24:45 29° WSW 23:24:45 29° WSW 23:29:33 10° WNW
Tsikada Rocket 3.9 23:22:59 55° SSW 23:24:25 78° W 23:30:38 10° N
Cosmos 1758 Rocket 3.9 23:25:26 56° E 23:25:31 56° E 23:29:53 10° NNE
YAOGAN 11 4.5 23:25:33 53° E 23:26:00 56° ENE 23:30:21 10° N
ADEOS II 4.2 23:36:51 10° NE 23:40:16 17° E 23:42:36 13° ESE
GP-B 4.0 23:44:02 10° NNW 23:48:05 36° W 23:48:05 36° W
